OneWeb SL0124

operational
NORAD ID: 47276 Int'l Des: 2020-100 Owner: ONEWEB Country: UK Constellation: oneweb
LEOCIRCULARPOLARONEWEB_TYPE

About OneWeb SL0124

Description loading...

Live Position

Loading 3D Globe...

Upcoming Passes

Altitude History

Altitude vs Time

uPlot chart will show altitude changes over time

Two-Line Element Set

1 47276U 20100U 25351.59296271 -.00000489 00000-0 -13951-2 0 9990
2 47276 87.8937 26.7194 0001723 93.3369 266.7957 13.12450710240827
Epoch: Dec 17, 2025 • Age: 13 hours

Current Status

Altitude 1232.5 km
Velocity 7.24 km/s
Sub-Earth Point -46.06°S, 104.62°W
Launch Date Dec 18, 2020
Age 4.9 years
Type internet

Technical Details

Classification Payload
Mass 148.00 kg
Dry Mass 140.00 kg
Total Mass 148.00 kg
Length 1.30 m
Diameter 1.00 m
Span 5.00 m
Shape Trapezoid+2 pan
Manufacturer ONEWUS
Bus Type ARROW
Phase Status In Orbit
Owner/State ONEWEB/UK

Large Constellations

Loading constellations...